Location: Newark
(40.7066°N, 111.8219°W)
Time: 14:42:54
(UTC+00:00)

Transit 4A - Visible Passes

Search period start: 18 November 2019 00:00
Search period end: 28 November 2019 00:00
Orbit: 868 x 976 km, 66.8° (Epoch: 17 November)

Date Brightness Start Highest point End Pass type
(mag) Time Alt. Az. Time Alt. Az. Time Alt. Az.
18 Nov 10.4 12:06:55 10° NNE 12:07:58 10° NNE 12:09:01 10° NE visible
19 Nov 10.2 12:14:46 10° N 12:17:50 14° NE 12:20:53 10° ENE visible
20 Nov 10.0 12:23:27 10° N 12:27:36 19° NE 12:31:42 10° E visible
21 Nov 9.6 12:32:22 10° N 12:37:16 26° NE 12:42:06 10° ESE visible
22 Nov 9.1 12:41:25 10° NNW 12:46:51 37° NE 12:52:11 10° ESE visible
23 Nov 10.3 11:06:37 10° NNE 11:08:32 12° NNE 11:10:32 10° NE visible
23 Nov 8.5 12:50:34 10° NNW 12:56:20 53° NE 13:02:00 10° SE visible
24 Nov 10.1 11:16:12 13° NNE 11:18:22 16° NE 11:21:50 10° ENE visible
24 Nov 7.9 12:59:49 10° NNW 13:05:44 78° ENE 13:11:32 10° SSE visible
25 Nov 9.8 11:25:51 17° NNE 11:28:07 21° NE 11:32:29 10° E visible
25 Nov 7.7 13:09:24 11° NNW 13:15:02 71° WSW 13:20:48 10° SSE visible
26 Nov 9.4 11:35:34 23° NNE 11:37:44 30° NE 11:42:46 10° ESE visible
26 Nov 8.1 13:19:07 12° NW 13:24:16 47° WSW 13:29:46 10° S visible
27 Nov 9.7 02:38:40 10° S 02:40:17 18° S 02:40:17 18° S visible
27 Nov 8.8 11:45:24 32° N 11:47:17 42° NE 11:52:45 10° ESE visible
27 Nov 8.6 13:28:57 12° NW 13:33:25 31° WSW 13:38:24 10° SSW visible
